Flag for U.S.A. Weather past 2 weeks in Lakeland, Florida, U.S.A.

63 °F


Feels Like: 63 °F
Forecast: 63 / 79 °F
Wind: 5 mph from Northeast

Location: Lakeland Regional

Current Time: Nov 29, 2015 at 12:55:17 AM

Latest Report: Nov 29, 2015 at 12:15 AM

Visibility: 10 mi

Pressure: 30.17 "Hg

Humidity: 94%

Dew point: 61 °F

Location of LakelandLocation

Historic Weather in Lakeland — Graph


Lakeland temperature yesterday

Maximum temperature yesterday: 79 °F (at 12:50 PM)
Minimum temperature yesterday: 63 °F (at 12:35 AM)
Average temperature yesterday: 67 °F

Past Weeks' High & Low Weather Summary

High88 °F (Nov 18, 2:52 PM)100% (Nov 19, 6:52 AM)30.39 "Hg (Nov 19, 6:52 AM)
Low46 °F (Nov 23, 6:50 AM)32% (Nov 23, 1:50 PM)29.82 "Hg (Nov 22, 3:15 AM)
Average68 °F79%30.14 "Hg
* Reported Nov 14 5:50 AM — Nov 28 11:35 PM, Lakeland, Weather by CustomWeather, © 2015

Note: Actual official high and low records may vary slightly from our data, if they occured in-between our weather recording intervals... More about our weather records


Lakeland weather history for previous 24 hours

Time TempWeatherWind HumidityBarometerVisibility
11:35 PM
Sat, Nov 28
63 °FClear.6 mph94%30.18 "Hg10 mi
10:55 PM63 °FClear.5 mph94%30.18 "Hg10 mi
10:15 PM64 °FClear.6 mph88%30.18 "Hg10 mi
9:55 PM64 °FClear.7 mph88%30.17 "Hg10 mi
9:35 PM64 °FClear.6 mph83%30.17 "Hg10 mi
9:15 PM64 °FClear.7 mph83%30.17 "Hg10 mi
8:46 PM64 °FClear.6 mph78%30.16 "Hg10 mi
7:45 PM66 °FClear.7 mph73%30.16 "Hg10 mi
6:45 PM70 °FClear.5 mph64%30.13 "Hg10 mi
5:45 PM72 °FPassing clouds.6 mph61%30.12 "Hg10 mi
4:45 PM77 °FScattered clouds.9 mph54%30.11 "Hg10 mi
3:45 PM79 °FScattered clouds.9 mph51%30.10 "Hg10 mi
2:55 PM79 °FScattered clouds.12 mph51%30.11 "Hg10 mi
1:50 PM79 °FScattered clouds.12 mph51%30.13 "Hg10 mi
12:50 PM79 °FScattered clouds.9 mph51%30.16 "Hg10 mi
11:50 AM77 °FScattered clouds.13 mph57%30.19 "Hg10 mi
10:50 AM73 °FSunny.14 mph69%30.21 "Hg10 mi
9:50 AM70 °FScattered clouds.9 mph83%30.21 "Hg10 mi
8:50 AM64 °FScattered clouds.8 mph94%30.21 "Hg10 mi
7:50 AM64 °FLow clouds.7 mph94%30.20 "Hg4 mi
6:50 AM63 °FLow clouds.6 mph100%30.19 "Hg3 mi
5:50 AM63 °FPassing clouds.7 mph100%30.18 "Hg7 mi
4:35 AM63 °FClear.7 mph94%30.17 "Hg10 mi
4:15 AM63 °FClear.6 mph100%30.17 "Hg10 mi
3:55 AM63 °FClear.7 mph100%30.18 "Hg10 mi
3:35 AM63 °FClear.7 mph100%30.18 "Hg10 mi
3:15 AM63 °FClear.8 mph100%30.18 "Hg10 mi
2:55 AM63 °FClear.6 mph100%30.18 "Hg10 mi
1:15 AM63 °FClear.5 mph100%30.19 "Hg10 mi
12:55 AM63 °FClear.3 mph100%30.20 "Hg10 mi
12:35 AM63 °FClear.5 mph100%30.21 "Hg10 mi
Weather by CustomWeather, © 2015

See weather overviewHow to use our weather pages